Regional Weather Roundup
Issued by NWS

Home | Current Version | Previous Version | Graphics & Text | Print | Product List | Glossary On
Versions: 1 2 3 4 5 6 7 8 9 10 11 12 13 14 15 16 17 18 19 20 21 22 23 24 25 26 27 28 29 30 31 32 33 34 35 36 37 38 39 40 41 42 43 44 45 46 47 48 49 50
000
ASUS43 KIND 242100
RWRIN

WEATHER ROUNDUP FOR INDIANA
NATIONAL WEATHER SERVICE INDIANAPOLIS IN
500 PM EDT MON JUL 24 2017

NOTE: "FAIR" INDICATES FEW OR NO CLOUDS BELOW 12,000 FEET WITH NO
SIGNIFICANT WEATHER AND/OR OBSTRUCTIONS TO VISIBILITY.

* - STATION DOES NOT REPORT WEATHER SUCH AS PRECIPITATION OR FOG.

+ - STATION NOT QUALITY CONTROLLED BY THE NATIONAL WEATHER SERVICE.
    USE DATA WITH CAUTION...ESPECIALLY DEWPOINT AND RELATIVE
    HUMIDITY OBSERVATIONS.

INZ001>003-010>013-019-020-242200-
NORTHWEST INDIANA

CITY           SKY/WX    TMP DP  RH WIND       PRES   REMARKS
GARY /AIRPORT/ PTSUNNY   72  57  60 N15       30.06S
MONTICELLO +   FAIR      76  62  62 N9        30.01S

$$

LMZ046-743>745-242200-
SOUTHERN LAKE MICHIGAN

STATION/POSITION TIME  TEMP    WIND        PRES    WAVE
                       AIR SEA DIR/SP/G            HT
                 (UTC) (F)     (DEG/KT/KT) (MB)    (FT)
BURNS HARBOR     2040   69      10/ 10/ 13 1018.3R
MICHIGAN CITY    2030   68      20/ 10/ 12   N/A
5NW MICH CITY    2050   69 74   20/  8/ 14   N/A     5

$$

INZ004-005-014>016-021>024-242200-
NORTH CENTRAL INDIANA

CITY           SKY/WX    TMP DP  RH WIND       PRES   REMARKS
ELKHART        PTSUNNY   73  55  53 NE5       30.04R
GOSHEN         CLOUDY    74  57  55 NE10      30.04R
SOUTH BEND     PTSUNNY   75  59  57 NE10      30.04S

$$

INZ006>009-017-018-025>027-242200-
NORTHEAST INDIANA

CITY           SKY/WX    TMP DP  RH WIND       PRES   REMARKS
FORT WAYNE     PTSUNNY   74  58  57 N10       30.02S
KENDALLVILLE + PTSUNNY   72  58  60 N7        30.05S

$$

INZ028-029-035-036-043>045-051>053-242200-
WEST CENTRAL INDIANA

CITY           SKY/WX    TMP DP  RH WIND       PRES   REMARKS
LAFAYETTE      PTSUNNY   76  64  66 NE9       30.00S
TERRE HAUTE    FAIR      81  67  62 N7        29.99S

$$

INZ030>032-037>040-046>048-054>057-064-065-242200-
CENTRAL INDIANA

CITY           SKY/WX    TMP DP  RH WIND       PRES   REMARKS
COLUMBUS       MOSUNNY   79  66  65 NE7       29.97S
GREENWOOD *+   FAIR     N/A N/A N/A N9        30.00R
INDIANAPOLIS   FAIR      81  64  56 NW8       29.99R
-EAGLE CREEK   FAIR      80  64  58 N10       29.99S
KOKOMO +       PTSUNNY   76  63  64 N10       30.02S
MT COMFORT *+  PTSUNNY   77  64  65 N7        30.00S
SHELBYVILLE    FAIR      82  65  56 N8        29.98S

$$

INZ033-034-041-042-049-050-058-059-242200-
EAST CENTRAL INDIANA

CITY           SKY/WX    TMP DP  RH WIND       PRES   REMARKS
MUNCIE         FAIR      77  63  61 N9        30.01R
RICHMOND +     FAIR      77  64  65 N12       30.00S

$$

INZ060-061-067>069-081>083-085>088-242200-
SOUTHWEST INDIANA

CITY           SKY/WX    TMP DP  RH WIND       PRES   REMARKS
EVANSVILLE     FAIR      91  69  48 VRB6      29.94S HX  96
HUNTINGBURG *+ FAIR      87  71  58 NW8       29.95S

$$

INZ062-063-066-070>080-084-089>092-242200-
SOUTH CENTRAL AND SOUTHEAST INDIANA

CITY           SKY/WX    TMP DP  RH WIND       PRES   REMARKS
BLOOMINGTON    FAIR      85  66  53 N7        29.98S
MADISON *+     FAIR      86  63  45 NW3       29.98S
SEYMOUR +      FAIR     N/A N/A N/A NW3       29.96S

$$





USA.gov is the U.S. government's official web portal to all federal, state and local government web resources and services.